Regional Weather Roundup
Issued by NWS Green Bay, WI

Home | Current Version | Previous Version | Graphics & Text | Print | Product List | Glossary Off
Versions: 1 2 3 4 5 6 7 8 9 10 11 12 13 14 15 16 17 18 19 20 21 22 23 24 25 26 27 28 29 30 31 32 33 34 35 36 37 38 39 40 41 42 43 44 45 46 47 48 49 50

000
ASUS43 KGRB 061610
RWRGRB

NORTH-CENTRAL AND NORTHEAST WISCONSIN REGIONAL WEATHER ROUNDUP
NATIONAL WEATHER SERVICE GREEN BAY WI
1100 AM CDT WED MAY 06 2015

WIZ005-009-010>012-018-019-061700-
NORTH CENTRAL WISCONSIN

CITY           SKY/WX    TMP DP  RH WIND       PRES   REMARKS
IRONWOOD       CLOUDY    55  50  82 SE3       30.13S
MANITOWISH WTR RAIN      49  48  97 SE8       30.18
ARBOR VITAE    CLOUDY    52  49  90 SE5       30.19R
EAGLE RIVER    CLOUDY    53  41  64 SE7       30.19F
LAND O LAKES   CLOUDY    54  43  66 SE3       30.20S
RHINELANDER    LGT RAIN  54  49  83 SE7       30.19F
PHILLIPS       CLOUDY    51  50  96 E8        30.15F
ANTIGO         CLOUDY    51  50  97 E6        30.20S
TOMAHAWK       LGT RAIN  50  48  92 CALM      30.18S
MERRILL        CLOUDY    51  51 100 E7        30.19S
$$

WIZ013-073-061700-
NORTHEAST WISCONSIN

CITY           SKY/WX    TMP DP  RH WIND       PRES   REMARKS
IRON MOUNTAIN  CLOUDY    63  35  35 S12       30.20S
MARINETTE      CLOUDY    55  39  54 SE6       30.23R
OCONTO         CLOUDY    53  48  81 SE5       30.22S
$$

WIZ017-030-035>037-045-061700-
CENTRAL WISCONSIN

CITY           SKY/WX    TMP DP  RH WIND       PRES   REMARKS
MEDFORD        PTSUNNY   56  52  85 E8        30.15S
WAUSAU         CLOUDY    56  50  80 SE8       30.16S
MOSINEE        CLOUDY    57  54  88 E6        30.17F
MARSHFIELD     PTSUNNY   63  52  67 SE10      30.15S
WISC RAPIDS    MOSUNNY   64  52  64 VRB7      30.17S
STEVENS POINT  PTSUNNY   57  50  79 E9        30.17F
WAUPACA        PTSUNNY   64  52  65 E7        30.18S
SHAWANO        LGT RAIN  55  51  86 E6        30.21F
CLINTONVILLE   CLOUDY    52  50  93 SE7       30.20F
$$

WIZ038-039-048-051-061700-
FOX VALLEY

CITY           SKY/WX    TMP DP  RH WIND       PRES   REMARKS
NWS GREEN BAY  CLOUDY    56  50  80 NE6       30.22R
APPLETON       LGT RAIN  57  48  72 CALM      30.20S
OSHKOSH        PTSUNNY   59  52  77 E8        30.19F
FOND DU LAC    MOSUNNY   61  54  77 SE8       30.19S
$$

WIZ022-050-052-061700-
EAST CENTRAL WISCONSIN

CITY           SKY/WX    TMP DP  RH WIND       PRES   REMARKS
STURGEON BAY   CLOUDY    52  43  71 SE6       30.25S
MANITOWOC      LGT RAIN  48  47  96 SE5       30.23S VSB 1/4
SHEBOYGAN      CLOUDY    52  51  97 S9        30.22S FOG
$$

LMZ563-521-522-541>543-061700-
LAKESHORE

STATION/POSITION TIME  TEMP    WIND        PRES    VSBY  WAVE
                       AIR SEA DIR/SP/G                  HT/PER
                 (UTC) (F)     (DEG/KT/KT) (MB)    (MI)  (FT/S)
SHEBOYGAN LKSHOR 1600   44     100/  3/  3 1024.1F
KEWAUNEE LKSHORE 1600   46      40/  2/  4 1022.8F
TWO RIVERS CG    1500   47 46              1023.9   1 1/4  0
NORTHPORT PIER   1600   44     100/  5/  6 1024.0S
SISTER BAY LKSHO 1600   60     150/  9/ 10   N/A
STURGEON BAY CG  1500   47     130/  3     1024.3   3 1/2  0
CHAMBERS ISLAND  1600   48      10/  7/  7 1023.7S
MENOMINEE LKSHOR 1600   50      10/  5/  5 1024.2R
$$


USA.gov is the U.S. government's official web portal to all federal, state and local government web resources and services.